Volver al catálogo

STARLINK-33751

ActivoComunicacionesVLEO
NORAD 63512·PAYLOAD·🇺🇸 United States

Lanzado Apr 7, 2025 desde Vandenberg Space Force Base

Loading…

Próximos Pases (próximas 24 horas)

TLE

ActualizadoSource: CelesTrak SupGP

Época: Sep 15, 2026, 03:47 UTC

1 63512C 25071V   26258.15812500  .00058497  00000+0  18805-2 0  2581
2 63512  53.1600 338.5995 0001246  90.5349 340.9082 15.31682406    12

Sigue STARLINK-33751 en tiempo real con AllMySat

Download on the App Store